Weather History for Tekamah, NE

Change the Weather History Date:

Tuesday, December 25, 2012

  Actual Average Record
Temperature  
Mean Temperature 8 °F -  
Max Temperature 12 °F 29 °F 54 °F (1959)
Min Temperature 3 °F 11 °F -15 °F (1983)
Degree Days  
Heating Degree Days 58    
Moisture  
Dew Point 1 °F    
Average Humidity 73    
Maximum Humidity 80    
Minimum Humidity 67    
Precipitation  
Precipitation 0.00 in - - ()
Sea Level Pressure  
Sea Level Pressure 30.46 in    
Wind  
Wind Speed 16 mph (North)    
Max Wind Speed 21 mph    
Max Gust Speed -    
Visibility 10 miles    
Events      
Averages and records for this station are not official NWS values.
T = Trace of Precipitation, MM = Missing Value Source: NWS Daily Summary

Daily Weather History Graph

Daily Weather History Graph

Search for Another Location

Airport:

Trip Planner

Search our weather history database for the weather conditions in past years. The results will help you decide how hot, cold, wet, or windy it might be!

Date:

Astronomy

Dec. 25, 2012 Rise Set
Actual Time 7:50 AM CST 4:59 PM CST
Civil Twilight 7:18 AM CST 5:31 PM CST
Nautical Twilight 6:43 AM CST 6:06 PM CST
Astronomical Twilight 6:09 AM CST 6:40 PM CST
Moon 3:09 PM CST (12/25) 5:23 AM CST (12/25)
Length of Visible Light 10h 12m
Length of Day
9h 09m
Waxing Gibbous, 94% of the Moon is Illuminated
Dec 25
Waxing Gibbous
Dec 28
Full
Jan 4
Last Quarter
Jan 11
New
Jan 18
First Quarter

Hourly Weather History & Observations

Time (CST) Temp. Windchill Dew Point Humidity Pressure Visibility Wind Dir Wind Speed Gust Speed Precip Events Conditions
12:54 AM 8.1 °F -10.2 °F -0.0 °F 70% 30.36 in 10.0 mi North 17.3 mph - N/A   Scattered Clouds
1:54 AM 6.1 °F -14.3 °F -0.9 °F 73% 30.36 in 10.0 mi North 20.7 mph - N/A   Partly Cloudy
2:54 AM 3.9 °F -15.6 °F -2.9 °F 73% 30.38 in 10.0 mi North 17.3 mph - N/A   Clear
3:54 AM 3.9 °F -15.6 °F -2.9 °F 73% 30.40 in 10.0 mi North 17.3 mph - N/A   Clear
4:54 AM 3.9 °F -16.6 °F -2.9 °F 73% 30.41 in 10.0 mi North 19.6 mph - N/A   Mostly Cloudy
5:54 AM 3.9 °F -16.1 °F -2.9 °F 73% 30.43 in 10.0 mi North 18.4 mph - N/A   Clear
6:54 AM 3.9 °F -15.0 °F -2.9 °F 73% 30.45 in 10.0 mi North 16.1 mph - N/A   Clear
7:54 AM 3.9 °F -14.3 °F -2.9 °F 73% 30.50 in 10.0 mi North 15.0 mph - N/A   Overcast
8:54 AM 3.0 °F -12.5 °F -2.9 °F 76% 30.52 in 10.0 mi NNW 10.4 mph - N/A   Clear
9:54 AM 5.0 °F -11.6 °F -2.0 °F 73% 30.55 in 10.0 mi NNW 12.7 mph - N/A   Clear
10:54 AM 7.0 °F -10.4 °F -0.9 °F 70% 30.57 in 10.0 mi North 15.0 mph - N/A   Clear
11:54 AM 8.1 °F -9.6 °F -0.0 °F 70% 30.54 in 10.0 mi North 16.1 mph - N/A   Clear
12:54 PM 10.9 °F -7.0 °F 3.0 °F 70% 30.48 in 10.0 mi North 18.4 mph - N/A   Clear
1:54 PM 12.9 °F -4.9 °F 3.9 °F 67% 30.45 in 10.0 mi North 19.6 mph - N/A   Clear
2:54 PM 12.9 °F -3.9 °F 5.0 °F 71% 30.49 in 10.0 mi North 17.3 mph - N/A   Clear
3:54 PM 12.9 °F -3.4 °F 5.0 °F 71% 30.51 in 10.0 mi North 16.1 mph - N/A   Partly Cloudy
4:54 PM 12.0 °F -3.4 °F 5.0 °F 73% 30.51 in 10.0 mi North 13.8 mph - N/A   Mostly Cloudy
5:54 PM 10.9 °F -3.4 °F 3.9 °F 73% 30.51 in 10.0 mi North 11.5 mph - N/A   Clear
6:54 PM 10.9 °F -4.7 °F 3.9 °F 73% 30.48 in 10.0 mi North 13.8 mph - N/A   Scattered Clouds
7:54 PM 9.0 °F -5.1 °F 3.0 °F 77% 30.47 in 10.0 mi North 10.4 mph - N/A   Clear
8:54 PM 9.0 °F -7.3 °F 3.0 °F 77% 30.45 in 10.0 mi North 13.8 mph - N/A   Clear
9:54 PM 8.1 °F -4.3 °F 1.9 °F 76% 30.45 in 10.0 mi North 8.1 mph - N/A   Clear
10:54 PM 6.1 °F -7.8 °F -0.0 °F 76% 30.43 in 10.0 mi North 9.2 mph - N/A   Clear
11:54 PM 5.0 °F -10.0 °F -0.0 °F 80% 30.44 in 10.0 mi North 10.4 mph - N/A   Clear